Flag for Germany Weather past 2 weeks in Schönebeck, Saxony-Anhalt, Germany

Now
26 °F

Overcast.


Feels Like: 26 °F
Forecast: 19 / 27 °F
Wind: 2 mph from Southeast

Location: Magdeburg

Current Time: Dec 27, 2014 at 9:51:32 AM

Latest Report: Dec 27, 2014 at 9:00 AM


Visibility: 6 mi

Pressure: 29.87 "Hg

Humidity: 91%

Dew point: 23 °F

Location of SchönebeckLocation

Historic Weather in Schönebeck — Graph

°F

Schönebeck temperature yesterday

Maximum temperature yesterday: 34 °F (at 1:00 AM)
Minimum temperature yesterday: 27 °F (at 11:00 PM)
Average temperature yesterday: 32 °F

Past Weeks' High & Low Weather Summary

 TemperatureHumidityPressure
High56 °F (Dec 18, 11:00 PM)97% (Dec 17, 7:00 PM)30.37 "Hg (Dec 17, 7:00 PM)
Low25 °F (Dec 27, 3:00 AM)61% (Dec 25, 3:00 PM)29.38 "Hg (Dec 12, 5:00 PM)
Average43 °F82%29.92 "Hg
* Reported Dec 12 8:00 AM — Dec 27 8:00 AM, Schönebeck, Weather by CustomWeather, © 2014

Note: Actual official high and low records may vary slightly from our data, if they occured in-between our weather recording intervals... More about our weather records

Advertising

Schönebeck weather history for previous 24 hours

 ConditionsComfort  
Time TempWeatherWind HumidityBarometerVisibility
8:00 AM
Dec 27
26 °FPassing clouds.3 mph91%29.90 "Hg6 mi
7:00 AM26 °FFog.3 mph91%29.94 "Hg4 mi
6:00 AM26 °FFog.2 mph94%29.97 "Hg4 mi
5:00 AM25 °FFog.2 mph93%30.03 "Hg4 mi
3:00 AM25 °FOvercast.2 mph94%30.11 "Hg5 mi
2:00 AM25 °FOvercast.1 mph93%30.13 "Hg6 mi
1:00 AM26 °FPassing clouds.2 mph93%30.17 "Hg7 mi
12:00 AM27 °FPassing clouds.2 mph91%30.20 "Hg7 mi
11:00 PM
Dec 26
27 °FPassing clouds.1 mph94%30.23 "Hg6 mi
9:00 PM29 °FPassing clouds.2 mph90%30.28 "Hg9 mi
8:00 PM31 °FOvercast.1 mph88%30.30 "Hg10 mi
7:00 PM31 °FOvercast.1 mph88%30.31 "Hg11 mi
6:00 PM31 °FOvercast.1 mph82%30.33 "Hg22 mi
5:00 PM32 °FOvercast.1 mph82%30.34 "Hg25 mi
3:00 PM33 °FOvercast.1 mph75%30.34 "Hg37 mi
2:00 PM33 °FPartly sunny.2 mph75%30.35 "Hg37 mi
1:00 PM34 °FScattered clouds.2 mph76%30.36 "Hg31 mi
12:00 PM33 °FScattered clouds.2 mph76%30.37 "Hg25 mi
11:00 AM32 °FPartly sunny.2 mph85%30.37 "Hg22 mi
9:00 AM31 °FSunny.1 mph93%30.35 "Hg19 mi
Weather by CustomWeather, © 2014

See weather overviewHow to use our weather pages